• în Republica Moldova
  • Lista ţărilor
  • Pe 7 zile
  • Temperatura apei
  • Hartă satelitară
  • Meteo pe hartă
  • Widget-uri
  • user-avatar
    Intrare

    Meteo pe oră la Albany

    Astăzi, 12 Decembrie, Miercuri

    Timp Temperatura Precipitaţii Vânt Presiune Umiditate
    00:00 +17°C° 0.1 mm 6 m/s 755 mmHg 82%
    01:00 +17°C° 0.1 mm 6 m/s 756 mmHg 81%
    02:00 +16°C° 0 mm 6 m/s 756 mmHg 82%
    03:00 +16°C° 0 mm 6 m/s 757 mmHg 80%
    04:00 +15°C° 0 mm 5 m/s 757 mmHg 78%
    05:00 +15°C° 0 mm 5 m/s 758 mmHg 76%
    06:00 +15°C° 0 mm 5 m/s 758 mmHg 71%
    07:00 +16°C° 0 mm 5 m/s 759 mmHg 65%
    08:00 +17°C° 0 mm 4 m/s 760 mmHg 62%
    09:00 +18°C° 0 mm 4 m/s 760 mmHg 59%
    10:00 +18°C° 0 mm 4 m/s 760 mmHg 56%
    11:00 +19°C° 0 mm 4 m/s 761 mmHg 54%
    12:00 +19°C° 0 mm 4 m/s 761 mmHg 51%
    13:00 +20°C° 0 mm 4 m/s 761 mmHg 49%
    14:00 +20°C° 0 mm 4 m/s 761 mmHg 47%
    15:00 +20°C° 0 mm 4 m/s 761 mmHg 49%
    16:00 +19°C° 0 mm 4 m/s 761 mmHg 51%
    17:00 +19°C° 0 mm 4 m/s 761 mmHg 53%
    18:00 +17°C° 0 mm 4 m/s 762 mmHg 58%
    19:00 +15°C° 0 mm 4 m/s 762 mmHg 63%
    20:00 +14°C° 0 mm 4 m/s 762 mmHg 68%
    21:00 +13°C° 0 mm 4 m/s 762 mmHg 70%
    22:00 +13°C° 0 mm 4 m/s 763 mmHg 72%
    23:00 +12°C° 0 mm 4 m/s 763 mmHg 75%

    Mâine, 13 Decembrie, Joi

    Timp Temperatura Precipitaţii Vânt Presiune Umiditate
    00:00 +12°C° 0 mm 4 m/s 763 mmHg 76%
    01:00 +12°C° 0 mm 4 m/s 762 mmHg 78%
    02:00 +12°C° 0 mm 4 m/s 762 mmHg 79%
    03:00 +11°C° 0 mm 4 m/s 762 mmHg 81%
    04:00 +11°C° 0 mm 4 m/s 762 mmHg 82%
    05:00 +11°C° 0 mm 4 m/s 762 mmHg 84%
    06:00 +13°C° 0 mm 4 m/s 762 mmHg 75%
    07:00 +15°C° 0 mm 4 m/s 762 mmHg 67%
    08:00 +17°C° 0 mm 5 m/s 762 mmHg 58%
    09:00 +20°C° 0 mm 5 m/s 762 mmHg 51%
    10:00 +22°C° 0 mm 5 m/s 761 mmHg 44%
    11:00 +25°C° 0 mm 5 m/s 761 mmHg 37%
    12:00 +26°C° 0 mm 5 m/s 760 mmHg 36%
    13:00 +27°C° 0 mm 6 m/s 760 mmHg 35%
    14:00 +28°C° 0 mm 6 m/s 759 mmHg 34%
    15:00 +27°C° 0 mm 7 m/s 759 mmHg 38%
    16:00 +26°C° 0 mm 7 m/s 759 mmHg 43%
    17:00 +24°C° 0 mm 7 m/s 758 mmHg 48%
    18:00 +22°C° 0 mm 7 m/s 758 mmHg 55%
    19:00 +20°C° 0 mm 7 m/s 759 mmHg 63%
    20:00 +17°C° 0 mm 7 m/s 759 mmHg 71%
    21:00 +17°C° 0 mm 7 m/s 759 mmHg 73%
    22:00 +16°C° 0 mm 6 m/s 759 mmHg 75%
    23:00 +16°C° 0 mm 6 m/s 759 mmHg 77%

    Poimâine, 14 Decembrie, Vineri

    Timp Temperatura Precipitaţii Vânt Presiune Umiditate
    00:00 +16°C° 0 mm 6 m/s 758 mmHg 78%
    01:00 +16°C° 0 mm 6 m/s 757 mmHg 79%
    02:00 +16°C° 0 mm 6 m/s 757 mmHg 80%
    03:00 +15°C° 0 mm 5 m/s 756 mmHg 80%
    04:00 +15°C° 0 mm 5 m/s 756 mmHg 79%
    05:00 +15°C° 0 mm 5 m/s 756 mmHg 79%
    06:00 +19°C° 0 mm 5 m/s 756 mmHg 66%
    07:00 +21°C° 0 mm 4 m/s 756 mmHg 54%
    08:00 +25°C° 0 mm 4 m/s 756 mmHg 41%
    09:00 +28°C° 0 mm 4 m/s 756 mmHg 36%
    10:00 +30°C° 0 mm 4 m/s 756 mmHg 30%
    11:00 +34°C° 0 mm 4 m/s 755 mmHg 25%
    12:00 +34°C° 0 mm 5 m/s 755 mmHg 26%
    13:00 +35°C° 0 mm 5 m/s 754 mmHg 26%
    14:00 +35°C° 0 mm 6 m/s 753 mmHg 26%
    15:00 +34°C° 0 mm 6 m/s 753 mmHg 30%
    16:00 +32°C° 0 mm 6 m/s 753 mmHg 33%
    17:00 +30°C° 0 mm 6 m/s 753 mmHg 37%
    18:00 +28°C° 0 mm 6 m/s 753 mmHg 41%
    19:00 +26°C° 0 mm 6 m/s 753 mmHg 46%
    20:00 +23°C° 0 mm 5 m/s 753 mmHg 51%
    21:00 +23°C° 0 mm 6 m/s 753 mmHg 52%
    22:00 +22°C° 0 mm 6 m/s 752 mmHg 54%
    23:00 +22°C° 0 mm 6 m/s 752 mmHg 56%

    15 Decembrie, Sâmbătă

    Timp Temperatura Precipitaţii Vânt Presiune Umiditate
    00:00 +21°C° 0.1 mm 5 m/s 752 mmHg 60%
    01:00 +20°C° 0.1 mm 4 m/s 751 mmHg 65%
    02:00 +20°C° 0.1 mm 3 m/s 751 mmHg 70%
    03:00 +20°C° 0.2 mm 3 m/s 751 mmHg 73%
    04:00 +19°C° 0.2 mm 3 m/s 751 mmHg 77%
    05:00 +19°C° 0.2 mm 4 m/s 751 mmHg 80%
    06:00 +20°C° 0.3 mm 3 m/s 751 mmHg 77%
    07:00 +21°C° 0.3 mm 3 m/s 751 mmHg 75%
    08:00 +21°C° 0.3 mm 2 m/s 752 mmHg 72%
    09:00 +21°C° 1 mm 3 m/s 751 mmHg 73%
    10:00 +22°C° 1 mm 4 m/s 751 mmHg 73%
    11:00 +22°C° 1 mm 4 m/s 751 mmHg 73%
    12:00 +23°C° 0.1 mm 5 m/s 750 mmHg 68%
    13:00 +24°C° 0.1 mm 6 m/s 750 mmHg 63%
    14:00 +26°C° 0.1 mm 6 m/s 749 mmHg 58%
    15:00 +23°C° 0.3 mm 7 m/s 749 mmHg 63%
    16:00 +22°C° 0.3 mm 9 m/s 749 mmHg 68%
    17:00 +19°C° 0.3 mm 10 m/s 749 mmHg 72%
    18:00 +19°C° 0.5 mm 10 m/s 749 mmHg 76%
    19:00 +18°C° 0.5 mm 10 m/s 750 mmHg 79%
    20:00 +17°C° 0.5 mm 10 m/s 750 mmHg 82%
    21:00 +17°C° 0.3 mm 10 m/s 750 mmHg 83%
    22:00 +17°C° 0.3 mm 10 m/s 751 mmHg 83%
    23:00 +17°C° 0.3 mm 10 m/s 751 mmHg 84%

    16 Decembrie, Duminică

    Timp Temperatura Precipitaţii Vânt Presiune Umiditate
    00:00 +17°C° 0.2 mm 10 m/s 750 mmHg 83%
    01:00 +17°C° 0.2 mm 9 m/s 750 mmHg 82%
    02:00 +17°C° 0.2 mm 9 m/s 749 mmHg 81%
    03:00 +17°C° 0.1 mm 9 m/s 750 mmHg 81%
    04:00 +17°C° 0.1 mm 8 m/s 750 mmHg 82%
    05:00 +17°C° 0.1 mm 8 m/s 750 mmHg 83%
    06:00 +17°C° 0.1 mm 7 m/s 750 mmHg 80%
    07:00 +18°C° 0.1 mm 7 m/s 751 mmHg 78%
    08:00 +19°C° 0.1 mm 6 m/s 751 mmHg 76%
    09:00 +18°C° 0.2 mm 7 m/s 751 mmHg 77%
    10:00 +18°C° 0.2 mm 7 m/s 751 mmHg 79%
    11:00 +18°C° 0.2 mm 7 m/s 751 mmHg 81%
    12:00 +17°C° 0.3 mm 7 m/s 751 mmHg 82%
    13:00 +17°C° 0.3 mm 7 m/s 751 mmHg 83%
    14:00 +17°C° 0.3 mm 7 m/s 751 mmHg 84%
    15:00 +17°C° 0.5 mm 7 m/s 751 mmHg 85%
    16:00 +17°C° 0.5 mm 7 m/s 751 mmHg 86%
    17:00 +17°C° 0.5 mm 7 m/s 752 mmHg 87%
    18:00 +17°C° 0.4 mm 6 m/s 752 mmHg 87%
    19:00 +17°C° 0.4 mm 6 m/s 753 mmHg 88%
    20:00 +17°C° 0.4 mm 6 m/s 753 mmHg 88%
    21:00 +17°C° 0.3 mm 6 m/s 753 mmHg 87%
    22:00 +16°C° 0.3 mm 6 m/s 753 mmHg 87%
    23:00 +16°C° 0.3 mm 6 m/s 753 mmHg 87%

    17 Decembrie, Luni

    Timp Temperatura Precipitaţii Vânt Presiune Umiditate
    00:00 +16°C° 0.2 mm 6 m/s 753 mmHg 87%
    01:00 +16°C° 0.2 mm 6 m/s 753 mmHg 87%
    02:00 +16°C° 0.2 mm 6 m/s 753 mmHg 86%
    03:00 +16°C° 0.2 mm 6 m/s 753 mmHg 86%
    04:00 +16°C° 0.2 mm 5 m/s 753 mmHg 87%
    05:00 +16°C° 0.2 mm 5 m/s 754 mmHg 87%
    06:00 +16°C° 0.2 mm 6 m/s 754 mmHg 84%
    07:00 +17°C° 0.2 mm 6 m/s 754 mmHg 82%
    08:00 +17°C° 0.2 mm 6 m/s 755 mmHg 80%
    09:00 +19°C° 0.1 mm 6 m/s 755 mmHg 76%
    10:00 +20°C° 0.1 mm 6 m/s 755 mmHg 73%
    11:00 +20°C° 0.1 mm 6 m/s 755 mmHg 69%
    12:00 +21°C° 0.1 mm 6 m/s 755 mmHg 67%
    13:00 +21°C° 0.1 mm 6 m/s 755 mmHg 65%
    14:00 +21°C° 0.1 mm 6 m/s 755 mmHg 63%
    15:00 +21°C° 0.1 mm 6 m/s 755 mmHg 66%
    16:00 +20°C° 0.1 mm 6 m/s 755 mmHg 69%
    17:00 +19°C° 0.1 mm 6 m/s 755 mmHg 71%
    18:00 +17°C° 0.1 mm 5 m/s 756 mmHg 76%
    19:00 +17°C° 0.1 mm 5 m/s 756 mmHg 80%
    20:00 +17°C° 0.1 mm 4 m/s 757 mmHg 84%
    21:00 +15°C° 0 mm 4 m/s 757 mmHg 85%
    22:00 +15°C° 0 mm 4 m/s 757 mmHg 86%
    23:00 +15°C° 0 mm 4 m/s 757 mmHg 87%
    Arată mai mult